SENTINEL-6A

Last updated on Sun Jun 21 2026 00:02:52 GMT+0000 (Coordinated Universal Time)

1 46984U 20086A 26171.28659686 -.00000041 00000+0 86498-4 0 9998 2 46984 66.0398 128.6148 0007932 270.1789 89.8317 12.80930002260728
UTC large
Height (km)
Speed (km/s)
/
Latitude / Longitude
Inclination (degrees)
Orbital Period (minutes)
Azimuth
Elevation
Range (km)
Doppler Factor

Next 0 passes for location: London (51.5072 / 0.1276)

No passes found over London.
SENTINEL-6A